Regional Weather Roundup
Issued by NWS

Home | Current Version | Previous Version | Graphics & Text | Print | Product List | Glossary On
Versions: 1 2 3 4 5 6 7 8 9 10 11 12 13 14 15 16 17 18 19 20 21 22 23 24 25 26 27 28 29 30 31 32 33 34 35 36 37 38 39 40 41 42 43 44 45 46 47 48 49 50
000
ASUS44 KMEG 160100
RWRTN
TENNESSEE HOURLY STATE WEATHER ROUNDUP
NATIONAL WEATHER SERVICE MEMPHIS TN
700 PM CST FRI DEC 15 2017

TNZ002-004-019-021-049-052-054-088>092-160200-
WEST TENNESSEE

CITY           SKY/WX    TMP DP  RH WIND       PRES   REMARKS
MEMPHIS INTL   PTCLDY    39  27  62 S7        30.19R WCI  34
NWS MEMPHIS      N/A     41 N/A N/A MISG        N/A
JACKSON        CLEAR     34  26  72 S6        30.19R WCI  29
DYERSBURG      CLEAR     40  26  57 S3        30.17R
$$

TNZ008-025-027-028-033-062-065-066-160200-
NORTH MIDDLE TENNESSEE

CITY           SKY/WX    TMP DP  RH WIND       PRES   REMARKS
NASHVILLE      PTCLDY    34  23  64 S3        30.19R
CLARKSVILLE    CLEAR     37  22  54 S5        30.15S WCI  33
SMYRNA         CLEAR     30  23  75 CALM      30.20R
CROSSVILLE     CLEAR     25  18  74 CALM      30.15R
$$

TNZ061-075-076-078-094-096-097-160200-
SOUTH MIDDLE TENNESSEE

CITY           SKY/WX    TMP DP  RH WIND       PRES   REMARKS
WINCHESTER     CLEAR     25  21  86 CALM      30.20R
$$

TNZ017-018-042-046-047-160200-
NORTHEAST TENNESSEE

CITY           SKY/WX    TMP DP  RH WIND       PRES   REMARKS
TRI CITIES     CLOUDY    30  21  69 W5        30.14R WCI  25
$$

TNZ012-013-036-069-073-074-160200-
CENTRAL EAST TENNESSEE

CITY           SKY/WX    TMP DP  RH WIND       PRES   REMARKS
KNOXVILLE      CLEAR     29  23  78 S5        30.18R WCI  24
OAK RIDGE      CLEAR     29  22  75 CALM      30.20R
$$

TNZ083-085-099-160200-
SOUTHEAST TENNESSEE

CITY           SKY/WX    TMP DP  RH WIND       PRES   REMARKS
CHATTANOOGA    PTCLDY    30  22  72 CALM      30.20S
$$

SKY/WX REPORTED AS FAIR MEANS FEW OR NO CLOUDS BELOW
12 THOUSAND FEET.





USA.gov is the U.S. government's official web portal to all federal, state and local government web resources and services.